SQ2CDE-4 Weather Reports


time (UTC)temp
C
wind
direction
speed
KPH
gust
KPH
rain 1hr
cm
rain 24hr
cm
rain mn
cm
humidity
%
barometer
mb
20260503021632 13 210 6.4 0.0 0.00 0.00 0.00 51 1014.0
20260503020629 13 210 6.4 0.0 0.00 0.00 0.00 51 1014.0
20260503015626 13 210 6.4 0.0 0.00 0.00 0.00 51 1015.0
20260503014623 13 210 6.4 0.0 0.00 0.00 0.00 51 1015.0
20260503013620 13 210 6.4 0.0 0.00 0.00 0.00 51 1015.0
20260503012617 13 210 6.4 0.0 0.00 0.00 0.00 51 1015.0
20260503011614 13 210 6.4 0.0 0.00 0.00 0.00 51 1015.0
20260503010611 13 210 6.4 0.0 0.00 0.00 0.00 51 1015.0
20260503005609 12 210 6.4 0.0 0.00 0.00 0.00 54 1015.0
20260503004605 12 210 6.4 0.0 0.00 0.00 0.00 54 1015.0
20260503002600 11 220 6.4 0.0 0.00 0.00 0.00 62 1015.0
20260503001557 11 220 6.4 0.0 0.00 0.00 0.00 62 1015.0
20260502235551 8 210 6.4 0.0 0.00 0.00 0.00 71 1015.0
20260502234548 8 210 6.4 0.0 0.00 0.00 0.00 71 1015.0
20260502232542 8 210 3.2 0.0 0.00 0.00 0.00 71 1016.0
20260502231539 8 210 3.2 0.0 0.00 0.00 0.00 71 1016.0
20260502225534 8 0 0.0 0.0 0.00 0.00 0.00 66 1016.0
20260502224531 8 0 0.0 0.0 0.00 0.00 0.00 66 1016.0
20260502222526 10 200 3.2 0.0 0.00 0.00 0.00 62 1016.0
20260502221522 10 200 3.2 0.0 0.00 0.00 0.00 62 1016.0
20260502215517 8 0 0.0 0.0 0.00 0.00 0.00 66 1016.0
20260502214514 8 0 0.0 0.0 0.00 0.00 0.00 66 1016.0
20260502212509 10 0 0.0 0.0 0.00 0.00 0.00 62 1016.0
20260502211506 10 0 0.0 0.0 0.00 0.00 0.00 62 1016.0
20260502210503 11 250 3.2 0.0 0.00 0.00 0.00 58 1016.0
20260502205500 11 250 3.2 0.0 0.00 0.00 0.00 58 1016.0
20260502204457 11 250 3.2 0.0 0.00 0.00 0.00 58 1016.0
20260502203453 11 0 0.0 0.0 0.00 0.00 0.00 54 1016.0
20260502202450 11 0 0.0 0.0 0.00 0.00 0.00 54 1016.0
20260502201446 11 0 0.0 0.0 0.00 0.00 0.00 54 1016.0
20260502200442 12 0 0.0 0.0 0.00 0.00 0.00 47 1016.0
20260502195439 12 0 0.0 0.0 0.00 0.00 0.00 47 1016.0
20260502194436 12 0 0.0 0.0 0.00 0.00 0.00 47 1016.0
20260502193433 12 0 0.0 0.0 0.00 0.00 0.00 47 1016.0
20260502192430 12 0 0.0 0.0 0.00 0.00 0.00 47 1016.0
20260502191427 12 0 0.0 0.0 0.00 0.00 0.00 47 1016.0
20260502190423 15 330 3.2 0.0 0.00 0.00 0.00 39 1016.0
20260502185420 15 330 3.2 0.0 0.00 0.00 0.00 39 1016.0
20260502184417 15 330 3.2 0.0 0.00 0.00 0.00 39 1016.0
20260502183415 16 340 6.4 0.0 0.00 0.00 0.00 36 1016.0
20260502182412 16 340 6.4 0.0 0.00 0.00 0.00 36 1016.0
20260502181409 16 340 6.4 0.0 0.00 0.00 0.00 36 1016.0
20260502180406 17 350 6.4 0.0 0.00 0.00 0.00 34 1016.0
20260502170346 17 360 12.9 0.0 0.00 0.00 0.00 34 1017.0
20260502164339 17 360 12.9 0.0 0.00 0.00 0.00 34 1017.0
20260502163334 18 360 12.9 0.0 0.00 0.00 0.00 34 1017.0
20260502162330 18 360 12.9 0.0 0.00 0.00 0.00 34 1017.0
20260502161325 18 360 12.9 0.0 0.00 0.00 0.00 34 1017.0
20260502160321 21 350 16.1 0.0 0.00 0.00 0.00 33 1018.0
20260502152309 26 310 12.9 0.0 0.00 0.00 0.00 24 1018.0
20260502151304 26 310 12.9 0.0 0.00 0.00 0.00 24 1018.0
20260502150259 27 240 12.9 0.0 0.00 0.00 0.00 17 1018.0
20260502123125 26 220 12.9 0.0 0.00 0.00 0.00 18 1020.0
20260502122115 26 220 12.9 0.0 0.00 0.00 0.00 18 1020.0
20260502121113 26 220 12.9 0.0 0.00 0.00 0.00 18 1020.0
20260502120110 26 200 12.9 0.0 0.00 0.00 0.00 20 1020.0
20260502115106 26 200 12.9 0.0 0.00 0.00 0.00 20 1020.0
20260502114103 26 200 12.9 0.0 0.00 0.00 0.00 20 1020.0
20260502113059 25 250 3.2 0.0 0.00 0.00 0.00 21 1021.0
20260502112057 25 250 3.2 0.0 0.00 0.00 0.00 21 1021.0
20260502111053 25 250 3.2 0.0 0.00 0.00 0.00 21 1021.0
20260502110050 23 70 3.2 0.0 0.00 0.00 0.00 24 1021.0
20260502105047 23 70 3.2 0.0 0.00 0.00 0.00 24 1021.0
20260502104045 23 70 3.2 0.0 0.00 0.00 0.00 24 1021.0
20260502103040 23 130 6.4 0.0 0.00 0.00 0.00 27 1021.0
20260502102038 23 130 6.4 0.0 0.00 0.00 0.00 27 1021.0
20260502101035 23 130 6.4 0.0 0.00 0.00 0.00 27 1021.0
20260502091016 22 160 6.4 0.0 0.00 0.00 0.00 29 1022.0
20260502042900 8 240 6.4 0.0 0.00 0.00 0.00 57 1023.0
20260502040854 8 240 6.4 0.0 0.00 0.00 0.00 57 1023.0
20260502035851 7 250 3.2 0.0 0.00 0.00 0.00 61 1023.0
20260502034848 7 250 3.2 0.0 0.00 0.00 0.00 61 1023.0
20260502033845 7 250 3.2 0.0 0.00 0.00 0.00 61 1023.0
20260502032842 7 260 3.2 0.0 0.00 0.00 0.00 61 1023.0
20260502031839 7 260 3.2 0.0 0.00 0.00 0.00 61 1023.0
20260502030836 7 260 3.2 0.0 0.00 0.00 0.00 61 1023.0
20260502025833 7 0 0.0 0.0 0.00 0.00 0.00 61 1023.0
20260502024830 7 0 0.0 0.0 0.00 0.00 0.00 61 1023.0
20260502023827 7 0 0.0 0.0 0.00 0.00 0.00 61 1023.0
20260502022825 8 240 3.2 0.0 0.00 0.00 0.00 53 1023.0